THORAD AGENA D DEB, 5430

Orbit data source: Space-Track

THORAD AGENA D DEB, 5430 is space debris in LEO originally from a launch on Tue, 30 Sep 1969 UTC launched from the Air Force Western Test Range (AFWTR). Debris objects in space refer to the collection of defunct objects orbiting the Earth. Examples of debris include non-operational satellites, rocket bodies, and fragments generated from explosions, collisions, or faulty payload assembly.

Loading next visibility...
Identifier
5430, 1969-082HW
Orbit
LEO
Country
Flag of USUS
Related business
Manufacturer
Unknown
Mission
Spacecraft
Bus & Motor
Unknown
Mass
Unknown
Launch date (UTC)
1969-09-30 (57 years ago)
Launch vehicle
Unknown
Launch site
Air Force Western Test Range (AFWTR)
Object type
Payload
Rocket body
Debris
Shape & HBR
Unknown shape, 0.1 m
Radar Cross Section
Medium (>0.1 m² and <1 m²)

Expand to show TLE details & history
Last TLE update: 2 days ago

TLE from 2 days ago
0 THORAD AGENA D DEB
1 05430U 69082HW  26171.95491978  .00000451  00000-0  23004-3 0  9998
2 05430  70.1067  13.1301 0059012 306.6045  52.9654 14.20857429913775
Epoch: 2026-06-20T22:55Z
TLE epoch observation values (Epoch: 2026-06-20T22:55:05.068Z)
Latitude
0.00002°
Longitude
120.19686°
Altitude
799.366 km
Speed
7.467 km/s
True Right ascension
00h 52m 31s
True Declination
0° 00' 00"
Sunlit
Object was in daylight at epoch
Visualization orbit readout
Latitude
Unknown
Longitude
Unknown
Altitude
Unknown
Speed
Unknown
Apparent Right ascension
Unknown
Apparent Declination
Unknown
Sunlit
N/A
Visualization observer readout
Local Sidereal Time
17:06:17
Azimuth
Unknown
Elevation
Unknown
Doppler factor
Unknown
Orbital elements
Apogee altitude
862.944 km
Perigee altitude
777.983 km
Semi-major axis
7,198.6 km
Eccentricity
0.0059
Inclination
70.1067°
RAAN
13.1301°
Arg. of periapsis
306.6045°
True anomaly
53.50761°
Mean anomaly
52.9654°
Eccentric anomaly
53.23627°
Mean motion
3.55362 °/min
Orbital period
101.31 mins
BSTAR
0.00023004
Loading maneuver chart data...
Computing Atmospheric mass density...

Documentation

Showing up to 5 results
|